Regional Weather Roundup
Issued by NWS

Home | Current Version | Previous Version | Graphics & Text | Print | Product List | Glossary On
Versions: 1 2 3 4 5 6 7 8 9 10 11 12 13 14 15 16 17 18 19 20 21 22 23 24 25 26 27 28 29 30 31 32 33 34 35 36 37 38 39 40 41 42 43 44 45 46 47 48 49 50
000
ASUS43 KMKX 271910
RWRWI

WISCONSIN REGIONAL WEATHER ROUNDUP
NATIONAL WEATHER SERVICE MILWAUKEE/SULLIVAN WI
100 PM CST FRI FEB 27 2015

NOTE: "FAIR" INDICATES FEW OR NO CLOUDS BELOW 12,000 FEET WITH NO
SIGNIFICANT WEATHER AND/OR OBSTRUCTIONS TO VISIBILITY.

WIZ001-002-006>008-014>016-023>028-272000-
NORTHWEST WISCONSIN

CITY           SKY/WX    TMP DP  RH WIND       PRES   REMARKS
SUPERIOR ARPT  SUNNY     16  -3  42 W12       30.46F WCI   3
ASHLAND        SUNNY     15  -6  39 SW9       30.45F WCI   3
HAYWARD        SUNNY     12  -9  38 VRB7      30.44F WCI   1
SIREN          SUNNY     12  -4  49 SW9       30.49F WCI   0
CUMBERLAND     SUNNY     10  -8  44 W10       30.47F WCI  -3
RICE LAKE      SUNNY     10  -5  51 W9        30.51F WCI  -3
CHETEK         SUNNY     11  -5  48 SW6       30.50F WCI   1
LADYSMITH      SUNNY     12  -4  49 SW7       30.47F WCI   2
EAU CLAIRE     SUNNY     10  -3  55 W10       30.53F WCI  -4
MENOMONIE      SUNNY     13  -3  50 SW6       30.53F WCI   4
NEW RICHMOND   SUNNY     13  -1  51 W6        30.51F WCI   4
OSCEOLA        SUNNY     15  -1  50 SW9       30.55F WCI   3
$$

WIZ003>005-009-010-017-018-272000-
NORTH CENTRAL WISCONSIN

CITY           SKY/WX    TMP DP  RH WIND       PRES   REMARKS
MANITOWISH WTR SUNNY     12  -6  44 W7        30.35F WCI   1
ARBOR VITAE    SUNNY     14  -4  44 W10       30.36F WCI   1
WOODRUFF       SUNNY     14  -4  44 W10       30.36F WCI   1
RHINELANDER    SUNNY     13  -4  46 W12       30.37F WCI  -1
EAGLE RIVER    SUNNY     13  -9  37 W8G16     30.35F WCI   2
LAND O LAKES   SUNNY     16  -8  33 W9        30.34F WCI   5
PHILLIPS       SUNNY     12  -6  43 SW8       30.40F WCI   0
TOMAHAWK       SUNNY     13  -6  41 W8        30.40F WCI   2
MEDFORD        SUNNY      8  -6  52 SW9       30.43F WCI  -6
MERRILL        SUNNY     13  -5  43 W9G16     30.43F WCI   1
$$

WIZ029-030-035-036-043>047-272000-
CENTRAL WISCONSIN

CITY           SKY/WX    TMP DP  RH WIND       PRES   REMARKS
WAUSAU         SUNNY      8  -6  52 W12       30.45F WCI  -7
MOSINEE        SUNNY     10  -4  52 SW13      30.47F WCI  -5
MARSHFIELD     SUNNY     11  -6  46 W9        30.47F WCI  -2
STEVENS POINT  SUNNY     10  -8  44 W7        30.49F WCI  -2
WAUPACA        SUNNY     18  -4  36 SW8       30.51F WCI   8
WAUTOMA        SUNNY     16  -4  40 W13       30.52F WCI   2
WISC RAPIDS    SUNNY     13  -7  40 W10       30.51F WCI   0
CAMP DOUGLAS   SUNNY     14  -4  44 W10       30.53F WCI   1
$$

WIZ011>013-019>022-031-037>040-048>050-272000-
NORTHEAST WISCONSIN

CITY           SKY/WX    TMP DP  RH WIND       PRES   REMARKS
ANTIGO         SUNNY     10  -5  51 SW10      30.40F WCI  -4
SHAWANO        SUNNY     17  -5  36 W10G16    30.48F WCI   5
OCONTO         SUNNY     16  -2  44 W10       30.47F WCI   4
STURGEON BAY   SUNNY     12  -2  52 W13       30.49F WCI  -3
GREEN BAY      SUNNY     15  -2  46 W15       30.50F WCI   0
MANITOWOC      SUNNY     17  -1  45 W14G21    30.52F WCI   3
APPLETON       SUNNY     16  -4  41 W12       30.50F WCI   3
CLINTONVILLE   SUNNY     16  -4  41 W10       30.48F WCI   3
OSHKOSH        SUNNY     15  -2  46 SW10G17   30.51F WCI   2
$$

WIZ032>034-041-042-053>061-272000-
SOUTHWEST WISCONSIN

CITY           SKY/WX    TMP DP  RH WIND       PRES   REMARKS
LA CROSSE      SUNNY     14  -5  42 W3        30.59F
SPARTA         SUNNY     13  -6  40 SW8       30.56F WCI   2
VIROQUA        SUNNY     11  -5  47 W8        30.52F WCI   0
BOSCOBEL       SUNNY     14  -5  42 SW7       30.59F WCI   4
PRAIRIE DU CHI SUNNY     10  -6  47 SW10      30.61F WCI  -4
PLATTEVILLE    SUNNY     10  -4  51 W7        30.57F WCI  -1
$$

WIZ056-057-062-063-064-067-068-272000-
SOUTH CENTRAL WISCONSIN

CITY           SKY/WX    TMP DP  RH WIND       PRES   REMARKS
REEDSBURG      SUNNY     13  -4  46 W6        30.54F WCI   4
BARABOO/DELLS  SUNNY     12  -6  44 W9        30.53F WCI   0
LONE ROCK      SUNNY     13  -6  42 W6        30.58F WCI   4
MINERAL POINT  SUNNY     12  -6  44 W10       30.54F WCI  -1
MADISON        SUNNY     13  -6  42 SW6       30.55F WCI   4
MIDDLETON      SUNNY     17  -7  34 NW6       30.54F WCI   8
WATERTOWN      SUNNY     14  -4  44 W7        30.54F WCI   4
MONROE         SUNNY     12  -4  48 W9        30.55F WCI   0
JANESVILLE     SUNNY     14  -8  37 W7        30.58F WCI   4
$$

WIZ051-052-058>065-066-070>072-272000-
SOUTHEAST WISCONSIN

CITY           SKY/WX    TMP DP  RH WIND       PRES   REMARKS
MILWAUKEE      SUNNY     16  -7  35 W7        30.56F WCI   6
WAUKESHA       SUNNY     12  -6  44 SW9       30.55F WCI   0
MILWAUKEE/TIMM SUNNY     16  -8  35 SW10      30.56F WCI   3
RACINE         SUNNY     15  -5  40 W10       30.58F WCI   2
BURLINGTON     SUNNY     13  -5  44 W12       30.57F WCI  -1
KENOSHA        SUNNY     13  -3  49 W8        30.57F WCI   2
FOND DU LAC    SUNNY     14  -3  47 W12       30.52F WCI   0
SHEBOYGAN      SUNNY     14  -2  49 W14       30.52F WCI  -1
WEST BEND      SUNNY     16  -4  41 W8        30.53F WCI   5
JUNEAU         SUNNY     13  -4  46 W14       30.54F WCI  -2
$$

LSZ147-162-272000-
LAKE SUPERIOR

STATION/POSITION TIME  TEMP    WIND        PRES    WAVE
                       AIR SEA DIR/SP/G            HT/PER
                 (UTC) (F)     (DEG/KT/KT) (MB)    (FT/S)
DEVILS ISLAND    1900   10     230/ 17/ 21 1032.2F
PORT WING        1840   13     260/ 10/ 13 1031.5F
SAXON HARBOR     1840   15     260/  6/ 10 1031.2F
$$

LMZ867-665-643>646-272000-
LAKE MICHIGAN

STATION/POSITION TIME  TEMP    WIND        PRES    WAVE
                       AIR SEA DIR/SP/G            HT/PER
                 (UTC) (F)     (DEG/KT/KT) (MB)    (FT/S)
NORTHPORT PIER   1830   13     260/  6/ 14 1031.8F
SISTER BAY       1843          250/ 11/ 13   N/A
KEWAUNEE LAKESHO 1800   13     250/  9/ 15 1032.5R
SHEBOYGAN LAKESH 1900   14     270/ 12/ 15 1035.7F
PORT WASHINGTON  1840   17     270/  5/ 13 1034.9F
MILWAUKEE LAKESH 1800   14     280/  8/ 12   N/A
KENOSHA   LAKESH 1900   14     260/  9/ 14 1035.2F
$$

TC  - TEMPERATURE IN CELSIUS
VSB - VISIBILITY IN STATUTE MILES
WCI - WIND CHILL INDEX
HX  - HEAT INDEX




USA.gov is the U.S. government's official web portal to all federal, state and local government web resources and services.